Location: Windsor
(43.2292°N, 89.3015°W)
Time: 20:18:42
(UTC+00:00)

NOAA 15 - Pass Details

Date: 09 July 2022
Orbit: 796 x 812 km, 98.6° (Epoch: 09 August)

Event Time Altitude Azimuth Distance (km) Brightness Sun altitude
Rises 02:28:21 0° 221° (SW) 3,321 7.8 -8.0°
Reaches altitude 10° 02:32:33 10° 253° (WSW) 2,399 7.5 -8.6°
Maximum altitude 02:34:16 11° 272° (W) 2,297 7.8 -8.8°
Drops below altitude 10° 02:35:59 10° 292° (WNW) 2,405 8.4 -9.1°
Sets 02:40:15 0° 324° (NW) 3,344 9.8 -9.6°
